Theta_e
319 319 319 320 320 321 322 322 321 315 322 332 334 337 338 340 339 338 337 336 336 336 337 337 336 336 337 337 336 336 336 335
319 319 318 319 319 319 319 321 322 322 315 324 331 336 336 335 338 338 337 337 336 336 337 337 335 335 335 335 335 335 333 333
318 317 316 316 316 316 316 317 318 320 321 318 327 331 333 333 335 337 337 336 335 336 336 336 335 335 334 335 334 332 332 332
316 314 313 313 313 313 313 314 314 316 319 321 322 329 332 333 334 335 335 336 334 334 335 336 335 336 334 333 333 332 331 330
313 312 311 310 310 310 310 311 311 312 315 319 323 326 332 332 333 333 334 335 336 335 335 336 336 335 334 333 332 334 332 330
311 310 308 308 308 308 308 308 308 310 310 313 317 323 329 332 332 333 334 334 334 336 335 335 335 334 333 333 332 334 333 332
310 308 306 306 305 305 305 304 305 306 307 309 312 317 324 332 332 334 334 335 334 335 334 335 334 333 333 332 334 334 332 332
308 306 305 304 303 302 301 300 300 302 302 305 309 312 320 327 334 335 335 336 334 334 334 334 333 333 334 335 334 333 332 331
306 304 303 302 301 300 298 296 297 298 299 302 305 308 313 326 332 333 335 335 334 333 333 334 334 334 334 334 334 333 332 331
304 303 301 299 298 297 294 294 294 295 297 299 302 306 312 326 332 333 334 335 334 332 332 333 332 333 333 332 333 331 330 330
303 302 299 297 296 295 292 292 293 294 296 298 302 305 314 330 333 333 333 334 334 332 332 332 331 331 331 332 331 330 329 330
301 300 298 296 295 293 292 291 291 292 295 298 301 310 329 331 332 333 332 333 332 332 331 330 330 330 330 330 328 329 329 329
300 298 296 294 293 292 290 289 290 291 294 297 300 306 319 329 331 331 331 332 331 330 330 329 329 328 329 328 328 328 328 328
298 297 295 292 290 289 288 288 289 290 293 296 298 300 302 314 325 327 328 328 328 328 328 328 328 328 328 327 327 326 326 326
296 295 294 291 289 288 287 287 288 289 291 293 295 295 297 301 311 320 324 325 325 326 326 326 326 325 325 325 324 323 322 323
293 293 293 290 289 287 286 286 287 287 289 290 291 293 293 301 299 308 318 321 322 323 323 324 322 322 323 323 323 322 320 318
292 291 291 289 288 287 286 286 285 286 287 288 290 291 291 292 292 293 297 302 303 312 309 312 314 314 318 320 321 318 316 314
290 290 289 288 287 287 286 285 285 285 285 286 287 288 290 290 291 290 290 291 292 294 293 295 297 302 311 315 316 313 308 304
289 288 287 287 286 286 286 286 285 285 285 285 285 286 287 288 289 289 288 287 288 290 290 292 292 292 299 305 308 303 297 294
Wind_Speed
5 8 10 11 11 14 15 13 13 12 18 21 23 25 28 29 28 27 27 29 30 32 28 25 30 28 24 21 20 19 16 16
5 8 10 11 11 13 14 16 13 14 14 20 23 26 30 31 31 31 28 26 29 33 29 28 31 29 26 26 19 18 15 14
7 11 12 13 15 15 16 16 16 14 14 19 25 26 30 31 30 30 29 29 30 34 36 33 34 26 27 25 25 17 14 18
11 13 15 16 16 18 19 18 19 17 17 19 22 27 27 26 28 30 35 36 39 41 41 37 34 30 29 28 29 23 15 21
11 14 18 20 19 19 20 21 21 20 18 18 21 27 29 31 31 33 33 37 37 38 38 37 32 32 29 30 30 24 20 17
13 14 19 21 22 23 22 23 23 21 21 20 21 26 31 31 30 29 32 33 38 37 39 37 36 34 30 30 30 26 25 20
12 16 19 20 22 24 25 26 26 24 22 23 23 27 31 32 31 28 29 32 34 36 38 39 38 34 32 33 29 27 26 23
13 15 17 19 22 25 27 28 29 27 25 25 25 27 29 38 35 29 28 27 29 35 38 37 37 39 36 33 31 28 27 26
13 15 19 21 23 24 25 27 31 29 29 29 28 28 30 35 35 30 28 27 28 30 35 35 37 37 34 33 28 27 27 26
14 16 19 22 25 27 27 30 31 31 32 32 32 30 29 36 37 32 27 25 25 27 33 32 32 35 35 33 28 28 23 24
14 14 18 20 22 24 26 26 28 32 32 31 30 34 30 34 31 30 27 25 24 24 29 33 31 32 35 31 23 21 22 23
14 14 18 19 21 23 25 26 28 30 29 31 33 32 21 24 24 26 29 26 28 28 30 33 33 35 36 31 28 22 23 22
13 16 19 20 23 25 27 29 33 32 32 29 27 21 12 8 16 19 22 24 26 28 30 33 32 31 32 30 26 24 23 20
13 14 16 21 25 29 30 30 30 32 30 26 22 19 17 13 4 14 19 24 26 29 32 30 31 31 30 27 24 22 19 17
13 14 15 23 26 26 28 29 31 31 28 26 23 23 19 17 14 6 8 12 18 23 27 28 28 26 26 25 24 23 17 14
13 14 15 23 24 25 27 28 29 31 30 30 27 23 21 23 14 13 11 8 10 14 18 20 23 23 23 24 22 20 17 14
12 14 18 21 24 24 25 27 29 29 29 31 32 31 29 27 30 27 22 18 15 22 21 23 24 20 24 22 19 21 16 12
12 14 16 20 22 23 24 25 26 27 29 31 34 27 31 32 34 37 37 36 30 29 23 24 23 20 19 21 22 24 18 12
10 14 17 20 20 22 23 24 27 28 30 30 33 34 33 30 31 37 37 37 30 35 32 31 31 27 23 23 25 25 21 16
Wind_Direction
11 356 351 346 340 330 324 321 308 278 248 239 237 232 231 230 226 223 224 219 212 211 215 212 213 203 204 200 200 203 203 210
10 360 351 344 345 342 335 325 319 308 276 243 233 230 229 231 228 226 225 222 215 208 212 213 213 205 205 203 200 202 194 196
11 357 351 346 338 335 331 327 320 311 285 263 247 236 234 232 229 228 222 219 213 210 211 212 208 205 202 198 199 191 197 192
358 356 353 346 339 332 325 320 316 312 301 283 265 248 241 232 228 227 221 217 216 213 209 208 209 205 199 200 198 192 185 195
359 349 345 342 337 331 323 317 313 308 305 294 272 260 236 232 230 230 223 219 216 212 208 206 205 206 202 199 198 194 195 193
353 346 339 334 335 332 326 319 312 305 301 290 280 264 255 240 235 234 224 221 216 211 207 204 205 204 204 196 195 196 201 201
345 338 333 331 332 331 328 324 315 309 302 294 279 271 260 251 234 225 221 216 212 212 206 203 202 202 201 200 194 198 197 209
347 345 339 334 332 330 327 324 315 312 306 295 283 274 264 250 242 231 221 211 206 210 205 202 200 202 200 197 197 194 198 210
344 340 337 334 331 327 325 323 317 315 309 300 289 279 265 250 237 228 228 219 211 209 209 205 199 198 195 196 198 198 196 207
343 340 340 337 331 329 329 323 318 315 311 305 295 287 271 244 227 220 227 225 213 207 211 208 205 199 188 189 192 195 190 202
349 344 341 336 330 328 327 319 319 317 313 307 301 294 279 229 222 214 218 223 210 204 204 204 203 192 179 180 190 194 190 204
350 344 342 342 337 338 333 329 329 322 316 321 322 312 271 219 213 211 214 216 207 206 204 199 193 180 174 177 185 187 195 200
351 347 346 351 349 346 341 340 337 326 330 327 327 341 348 234 204 216 210 209 202 199 193 189 187 181 171 173 178 186 195 200
355 351 349 3 354 352 344 340 336 338 338 344 347 354 359 30 220 208 207 204 204 197 193 183 180 172 165 166 181 183 190 194
0 348 0 5 359 352 343 341 344 345 350 356 0 6 7 28 27 55 184 188 191 187 183 175 167 163 160 170 174 170 174 181
356 355 5 5 358 350 347 349 350 356 359 3 8 17 24 50 26 37 72 129 166 172 163 152 148 150 156 171 173 154 155 175
354 2 10 2 360 356 350 354 358 5 10 9 12 22 35 43 47 49 63 84 93 134 130 135 136 142 157 159 156 139 154 157
6 11 5 2 1 359 360 359 5 17 19 17 21 19 35 45 52 53 49 53 60 74 74 90 100 103 146 161 153 129 126 123
14 11 8 7 6 8 10 14 18 21 25 25 27 30 33 41 49 58 54 51 47 51 54 70 71 82 110 123 121 110 104 91